SCP
0 0 0 0 0 0 0 0 0 0 0 0 0 0 0 0 0 0 0 0 0 1 1 2 2 2 2 2 1 1 1 1 1 1 1 1 1 1 1 0 1 0 0 0
0 0 0 0 0 0 0 0 0 0 0 0 0 0 0 0 0 0 0 0 0 0 1 1 2 2 2 1 1 1 1 1 1 1 1 1 1 1 1 0 0 0 0 0
0 0 0 0 0 0 0 0 0 0 0 0 0 0 0 0 0 0 0 0 0 0 0 1 1 2 2 1 1 1 1 1 1 1 1 1 1 1 1 1 1 0 0 0
0 0 0 0 0 0 0 0 0 0 0 0 0 0 0 0 0 0 0 0 0 0 0 0 1 1 1 1 1 1 1 1 1 1 1 1 1 1 1 1 1 0 0 0
0 0 0 0 0 0 0 0 0 0 0 0 0 0 0 0 0 0 0 0 0 0 0 0 1 1 0 1 1 1 1 1 1 0 0 0 0 0 0 0 0 0 0 0
0 0 0 0 0 0 0 0 0 0 0 0 0 0 0 0 0 0 0 0 0 0 0 0 0 0 0 0 1 1 1 1 1 0 0 0 0 0 0 0 0 0 0 0
0 0 0 0 0 0 0 0 0 0 0 0 0 0 0 0 0 0 0 0 0 0 0 0 0 0 0 0 0 1 1 1 1 0 0 0 0 0 0 0 0 0 0 0
0 0 0 0 0 0 0 0 0 0 0 0 0 0 0 0 0 0 0 0 0 0 0 0 0 0 0 0 0 1 1 1 1 0 0 0 0 0 0 0 0 0 0 0
0 0 0 0 0 0 0 0 0 0 0 0 0 0 0 0 0 0 0 0 0 0 0 0 0 0 0 0 0 1 1 1 0 0 0 0 0 0 0 0 0 0 0 0
0 0 0 0 0 0 0 0 0 0 0 0 0 0 0 0 0 0 0 0 0 0 0 0 0 0 0 0 0 0 1 1 0 0 0 0 0 0 0 0 0 0 0 0
0 0 0 0 0 0 0 0 0 0 0 0 0 0 0 0 0 0 0 0 0 0 0 0 0 0 0 0 0 0 1 0 0 0 0 0 0 0 0 0 0 0 0 0
0 0 0 0 0 0 0 0 0 0 0 0 0 0 0 0 0 0 0 0 0 0 0 0 0 0 0 0 0 0 0 0 0 0 0 0 0 0 0 0 0 0 0 0
0 0 0 0 0 0 0 0 0 0 0 0 0 0 0 0 0 0 0 0 0 0 0 0 0 0 0 0 0 0 0 0 0 0 0 0 0 0 0 0 0 0 0 0
0 0 0 0 0 0 0 0 0 0 0 0 0 0 0 0 0 0 0 0 0 0 0 0 0 0 0 0 0 0 0 0 0 0 0 0 0 0 0 0 0 0 0 0
0 0 0 0 0 0 0 0 0 0 0 0 0 0 0 0 0 0 0 0 0 0 0 0 0 0 0 0 0 0 0 0 0 0 0 0 0 0 0 0 0 0 0 0
0 0 0 0 0 0 0 0 0 0 0 0 0 0 0 0 0 0 0 0 0 0 0 0 0 0 0 0 0 0 0 0 0 0 0 0 0 0 0 0 0 0 0 0
0 0 0 0 0 0 0 0 0 0 0 0 0 0 0 0 0 0 0 0 0 0 0 0 0 0 0 0 0 0 0 0 0 0 0 0 0 0 0 0 0 0 0 0
0 0 0 0 0 0 0 0 0 0 0 0 0 0 0 0 0 0 0 0 0 0 0 0 0 0 0 0 0 0 0 0 0 0 0 0 0 0 0 0 0 0 0 0
0 0 0 0 0 0 0 0 0 0 0 0 0 0 0 0 0 0 0 0 0 0 0 0 0 0 0 0 0 0 0 0 0 0 0 0 0 0 0 0 0 0 0 0
0 0 0 0 0 0 0 0 0 0 0 0 0 0 0 0 0 0 0 0 0 0 0 0 0 0 0 0 0 0 0 0 0 0 0 0 0 0 0 0 0 0 0 0
0 0 0 0 0 0 0 0 0 0 0 0 0 0 0 0 0 0 0 0 0 0 0 0 0 0 0 0 0 0 0 0 0 0 0 0 0 0 0 0 0 0 0 0
0 0 0 0 0 0 0 0 0 0 0 0 0 0 0 0 0 0 0 0 0 0 0 0 0 0 0 0 0 0 0 0 0 0 0 0 0 0 0 0 0 0 0 0
0 0 0 0 0 0 0 0 0 0 0 0 0 0 0 0 0 0 0 0 0 0 0 0 0 0 0 0 0 0 0 0 0 0 0 0 0 0 0 0 0 0 0 0
0 0 0 0 0 0 0 0 0 0 0 0 0 0 0 0 0 0 0 0 0 0 0 0 0 0 0 0 0 0 0 0 0 0 0 0 0 0 0 0 0 0 0 0
0 0 0 0 0 0 0 0 0 0 0 0 0 0 0 0 0 0 0 0 0 0 0 0 0 0 0 0 0 0 0 0 0 0 0 0 0 0 0 0 0 0 0 0
0 0 0 0 0 0 0 0 0 0 0 0 0 0 0 0 0 0 0 0 0 0 0 0 0 0 0 0 0 0 0 0 0 0 0 0 0 0 0 0 0 0 0 0
Wind_Speed
9 10 13 16 16 9 10 11 11 8 6 10 12 12 9 6 7 8 8 8 9 8 7 6 7 8 8 8 9 9 9 8 7 5 5 4 4 3 3 2 3 3 2 2
9 13 13 12 12 8 10 11 9 5 5 7 9 12 9 8 9 8 8 8 8 7 7 7 7 8 9 9 10 9 9 9 8 6 5 3 4 3 3 2 2 2 2 2
12 8 11 12 13 11 11 12 10 6 4 4 5 9 10 8 7 7 7 6 7 7 7 7 8 8 8 9 9 8 9 9 9 7 5 4 3 3 3 3 2 2 2 2
8 6 10 13 14 13 10 8 8 8 8 5 7 7 9 9 9 8 8 7 6 6 6 6 7 7 8 8 7 8 9 9 8 8 7 8 6 5 4 3 3 3 2 2
6 7 11 13 13 12 6 7 7 8 6 5 8 7 6 7 9 10 8 7 6 5 5 6 6 6 6 6 6 7 8 8 8 8 8 8 6 4 3 3 4 3 2 2
3 4 6 7 7 9 9 8 5 4 5 8 10 10 7 6 8 7 7 6 5 4 4 4 4 5 5 5 6 7 8 8 8 8 8 8 7 5 5 5 4 3 2 2
4 4 3 4 8 9 10 9 5 6 7 7 7 9 6 2 2 4 5 4 3 2 3 3 4 5 5 6 6 7 8 8 8 8 7 7 7 6 6 5 5 4 3 2
7 7 5 5 6 8 12 11 7 7 8 5 7 9 2 2 1 1 1 1 1 1 1 2 3 4 4 6 6 7 7 7 7 7 6 6 6 4 3 4 4 3 2 2
6 5 4 4 3 7 9 9 2 1 1 4 7 4 2 2 2 2 2 2 1 1 1 2 3 3 4 5 5 6 7 6 6 6 6 5 5 4 4 4 3 2 2 2
2 4 4 3 4 1 3 6 4 5 6 6 6 7 5 4 2 2 2 1 2 2 2 3 3 3 3 3 4 4 5 5 5 5 5 4 4 4 4 3 3 3 2 2
2 4 4 4 5 6 6 6 4 3 3 5 6 4 2 2 2 2 2 2 1 2 3 3 3 4 4 4 4 4 3 4 4 4 4 4 4 4 3 3 3 2 2 2
1 2 3 2 0 2 3 5 6 5 4 4 4 2 3 2 2 2 2 2 2 3 3 4 4 4 4 4 4 4 3 3 3 4 4 4 4 4 3 3 3 2 2 1
2 4 5 4 4 3 3 4 4 2 2 5 6 3 3 3 2 2 3 3 3 3 4 4 4 4 4 4 3 3 3 3 3 3 4 4 4 3 3 2 2 2 1 1
2 1 3 6 4 5 5 5 6 5 5 5 6 4 3 2 1 2 2 2 3 3 4 4 4 4 4 4 3 4 3 3 3 3 3 3 3 2 2 2 1 1 1 1
2 2 1 1 1 4 5 7 8 8 7 6 5 5 4 3 2 2 3 3 3 3 3 3 3 3 4 3 3 3 3 3 3 3 3 2 2 2 2 1 1 1 1 1
2 2 2 1 2 3 3 5 7 8 7 6 5 5 2 1 1 2 3 3 3 2 2 3 3 3 3 3 3 3 3 2 2 3 2 2 2 2 1 1 0 0 1 1
1 1 1 1 2 2 3 4 6 5 4 6 7 5 3 3 3 2 3 3 3 3 3 2 2 2 2 2 2 2 2 2 3 3 2 2 2 1 1 0 0 1 1 1
1 1 1 1 3 5 0 2 3 4 3 3 3 2 3 3 1 1 2 3 3 3 3 2 2 2 2 2 2 2 2 2 2 2 2 2 1 1 1 0 1 1 1 1
1 2 1 2 2 2 1 1 1 2 2 2 3 3 3 3 2 0 0 1 2 2 2 2 2 2 2 2 2 2 2 2 2 2 2 2 2 1 1 1 1 1 1 2
3 1 1 2 3 3 1 3 4 3 2 1 2 3 3 4 3 2 1 1 1 2 2 2 2 2 3 2 2 2 2 2 1 1 2 2 2 2 2 2 2 2 2 2
1 1 1 2 2 1 3 5 3 4 1 2 1 1 2 2 1 2 2 2 2 3 3 2 2 2 2 2 1 2 2 1 2 2 2 2 2 2 2 2 2 2 1 2
1 1 1 1 3 2 4 2 0 2 3 2 1 1 0 1 2 2 2 2 2 3 3 3 2 2 2 2 1 2 2 2 2 1 1 2 2 2 2 2 2 1 1 1
1 2 1 1 1 2 1 2 3 3 2 2 1 1 1 2 2 2 2 2 2 2 2 2 2 2 2 2 2 1 2 2 2 1 1 2 2 2 2 2 2 1 1 1
1 2 2 1 2 3 3 3 3 2 2 2 1 0 1 2 2 2 2 1 1 1 1 1 2 1 1 2 2 2 2 2 2 2 2 2 2 2 2 2 2 1 1 1
3 2 2 3 3 3 2 4 4 3 2 2 2 1 1 2 2 1 1 1 1 1 1 1 1 1 2 2 2 2 2 2 2 2 2 2 2 2 2 2 2 2 2 2
2 2 3 2 2 3 3 5 4 3 2 2 1 1 1 1 1 1 1 0 0 1 0 1 1 1 1 2 2 2 2 2 2 2 2 2 2 2 2 2 2 2 2 3
Wind_Direction
180 194 199 198 203 216 198 202 206 205 191 207 218 227 222 215 219 217 210 208 206 207 197 188 190 187 182 179 178 176 174 169 164 160 161 162 164 158 153 145 150 160 159 169
180 209 204 196 194 197 200 201 200 188 186 211 221 235 233 225 223 224 216 212 210 207 196 189 186 186 187 185 184 181 180 174 174 172 164 161 152 158 153 151 154 155 157 165
197 200 191 189 190 195 204 206 197 180 167 203 217 232 218 212 217 221 221 219 218 212 206 196 192 190 188 189 188 185 182 179 177 168 154 140 134 139 161 168 166 170 172 173
207 192 183 189 196 197 204 203 191 179 184 196 207 234 210 203 208 213 216 216 220 217 216 205 200 194 192 190 186 187 182 179 175 170 171 169 176 180 185 176 172 172 178 183
190 185 186 194 196 194 184 165 182 189 200 212 208 235 215 187 211 211 211 214 219 222 220 211 205 200 193 186 183 184 179 177 175 178 179 184 188 182 164 165 171 175 174 181
170 175 194 192 181 178 148 136 132 172 201 226 208 217 227 192 209 205 207 213 219 224 225 217 199 191 182 176 177 178 177 176 176 178 182 188 186 177 170 176 176 179 175 178
158 154 149 155 150 167 173 159 160 181 201 221 183 216 234 149 210 221 217 221 224 227 218 203 185 180 173 172 172 174 174 174 176 178 183 186 186 185 184 182 184 183 184 189
173 172 166 166 175 176 188 191 196 196 199 183 190 221 197 72 63 162 178 206 200 187 182 182 179 177 171 170 169 170 171 171 173 177 180 182 182 182 181 183 184 191 192 188
182 165 144 152 158 169 179 199 222 185 153 193 199 215 224 141 127 118 118 104 89 98 105 136 151 157 159 162 166 168 168 167 170 173 172 174 176 175 171 172 177 184 183 177
149 146 153 148 146 143 199 164 172 186 187 211 206 217 202 172 169 132 111 96 76 82 88 98 116 125 133 143 147 152 161 163 166 167 166 167 169 167 164 164 168 170 176 184
113 135 142 159 186 177 163 175 189 187 232 223 211 194 85 176 156 138 103 80 66 80 89 89 94 101 108 111 118 127 139 145 151 155 156 157 155 157 159 161 165 167 174 187
74 130 143 164 9 239 208 194 191 195 199 235 238 152 69 135 128 119 93 67 66 76 82 86 89 97 103 106 108 114 120 129 137 144 147 146 145 147 152 155 160 167 174 182
134 143 140 152 157 167 191 194 202 186 182 212 222 175 102 126 116 109 100 87 81 83 81 82 86 89 93 96 95 96 101 104 112 127 137 138 140 143 147 149 150 161 177 189
74 119 206 204 191 175 194 199 199 193 211 220 234 213 207 195 153 121 109 97 89 88 86 83 82 82 83 86 88 86 88 92 99 112 123 127 128 131 134 133 143 165 193 206
57 101 100 22 164 182 204 207 205 211 223 230 228 228 230 228 222 165 145 130 114 104 97 90 83 78 78 77 79 81 80 81 90 99 107 108 103 102 107 114 137 179 222 232
36 116 114 101 148 155 196 219 214 220 224 226 227 247 238 211 161 165 166 156 145 131 115 100 89 78 72 69 72 74 70 68 77 86 86 92 98 96 97 100 113 219 243 245
10 154 163 185 155 140 220 231 213 205 215 218 230 234 198 193 197 199 178 166 163 152 138 125 106 86 67 57 62 66 64 66 72 73 70 70 84 92 88 81 160 278 269 264
152 116 135 163 173 208 219 0 237 210 230 253 250 216 197 192 195 196 192 177 161 151 142 134 117 83 59 54 60 65 69 71 69 65 56 44 47 49 30 1 296 291 279 267
197 161 149 177 196 238 279 348 309 222 257 284 227 210 181 136 126 139 118 163 164 150 130 109 95 83 71 62 63 79 77 74 66 47 29 20 8 354 327 309 305 298 279 270
66 117 169 184 207 217 23 360 324 250 232 16 207 196 192 193 211 193 101 89 94 104 98 90 81 71 64 54 64 82 76 68 41 7 353 353 352 331 313 307 301 289 275 274
28 55 194 214 215 260 345 318 267 208 307 7 302 236 221 228 278 94 108 88 86 88 84 81 83 68 46 34 56 69 54 19 348 337 334 341 345 324 316 311 301 294 278 276
298 220 197 222 206 234 2 4 243 329 346 334 320 308 267 108 99 103 99 89 90 89 84 78 74 59 39 25 38 51 27 356 340 332 335 338 335 327 314 310 309 304 283 278
269 296 291 249 265 347 344 311 315 315 306 321 321 321 145 130 124 110 102 93 92 91 82 77 83 66 38 20 15 23 353 341 326 324 330 329 325 318 307 304 303 301 286 274
292 301 240 248 288 317 330 333 340 340 330 337 346 335 147 136 136 122 117 106 99 88 71 69 72 57 25 11 0 344 332 325 317 319 323 318 313 313 315 307 301 294 279 272
307 288 254 255 285 308 342 340 330 338 356 15 26 46 129 135 141 140 137 128 102 67 37 33 41 17 351 349 347 343 335 322 313 316 315 311 305 303 313 315 314 299 287 275
298 270 272 275 310 295 314 333 338 349 0 10 36 48 64 121 144 133 116 111 114 87 34 28 18 355 340 341 338 332 323 309 302 305 307 304 302 304 303 307 312 321 294 294